Vorticity
5 4 5 5 6 6 5 6 5 6 10 14 11 5 3 3 4 3 2 1 1 7 10 3 1 3 4 3 4 5 5 8 7 4 3 4 4 3 3 3 3 3 4
4 4 3 3 4 4 6 5 4 5 4 3 8 16 15 6 3 2 2 3 3 2 1 4 10 5 1 1 4 3 3 4 6 9 6 4 5 5 4 3 3 2 2
3 2 3 3 2 2 2 4 4 4 5 6 5 3 2 5 18 22 11 3 1 2 2 2 2 1 6 8 4 1 3 3 2 4 7 9 6 5 4 4 3 3 3
5 5 5 5 5 5 4 5 5 5 4 4 4 6 6 5 2 3 3 9 22 17 4 2 1 1 1 2 2 4 6 6 2 4 2 3 6 8 6 5 5 4 4
5 5 4 4 4 4 4 4 3 3 2 2 2 2 3 4 7 9 5 2 4 4 7 18 15 5 2 1 1 1 2 2 3 7 3 4 3 3 4 7 6 5 4
4 4 4 3 3 3 2 2 2 2 2 3 2 2 2 2 2 2 3 6 7 5 7 6 5 9 14 12 7 4 2 2 1 2 2 5 5 4 2 3 4 5 5
2 3 3 2 2 2 2 2 2 2 2 2 2 2 2 2 2 2 2 2 2 3 4 4 4 5 6 6 7 10 12 10 6 3 2 1 4 4 6 5 3 3 4
2 2 2 2 2 2 3 3 3 3 3 3 3 3 3 2 3 3 2 2 2 4 3 2 -0 1 3 2 4 5 7 7 7 10 13 8 3 2 3 4 7 7 3
2 2 2 4 4 5 3 3 4 5 5 5 4 4 5 5 5 4 3 4 4 4 3 6 3 3 3 3 3 3 2 2 5 6 6 6 9 12 8 2 2 3 6
2 2 4 1 -0 1 3 4 5 3 2 2 6 6 7 7 7 7 6 4 3 3 3 4 3 4 4 4 3 2 3 3 2 2 3 5 5 5 7 10 10 6 4
3 3 -2 -1 -1 1 4 4 4 5 6 5 7 6 7 8 9 9 10 10 11 10 8 8 7 5 4 4 6 4 3 3 3 4 3 3 2 4 4 7 7 9 9
1 3 1 -2 -1 5 7 7 7 10 11 13 14 14 15 15 16 17 16 14 14 14 16 17 18 17 16 16 11 5 4 7 4 4 4 4 5 4 4 5 3 6 8
-0 -0 0 9 12 11 14 15 13 13 13 14 14 13 12 11 8 6 5 4 4 3 3 3 2 3 4 6 10 15 16 15 11 9 7 4 4 5 5 5 3 5 4
-3 2 8 13 13 16 13 12 12 11 9 7 5 4 4 3 3 3 3 4 4 5 5 5 5 4 4 4 3 4 5 6 9 11 16 18 14 9 4 4 6 6 3
6 10 17 19 14 11 9 6 4 3 3 3 3 3 3 3 3 4 4 4 3 3 2 2 2 2 3 3 3 3 2 2 3 2 2 3 5 8 14 15 7 4 6
11 16 16 8 6 4 3 4 6 6 7 7 7 7 7 7 6 5 5 5 4 3 3 2 3 2 5 4 5 5 4 3 2 3 3 2 2 3 3 4 9 14 13
17 14 6 4 3 4 5 6 6 5 5 6 6 6 7 8 8 7 6 6 6 6 5 4 5 5 4 4 4 3 3 4 4 5 4 4 4 4 3 3 4 2 2
10 4 4 4 4 4 4 4 4 5 5 4 6 6 5 4 5 5 5 5 5 5 5 5 5 5 6 6 7 7 7 5 4 4 5 4 3 2 3 3 3 4 5
6 4 4 4 3 4 5 5 5 4 4 4 4 5 6 5 4 4 4 5 4 5 5 6 7 6 5 7 6 7 9 8 8 8 7 5 4 2 3 3 4 3 2
2 3 4 3 4 5 3 2 3 4 6 10 9 5 4 6 10 13 14 14 15 18 20 20 21 23 24 22 16 11 7 8 8 9 11 12 11 11 10 10 8 8 8
2 1 2 5 3 4 5 8 13 12 8 3 6 14 21 23 24 20 15 10 9 6 11 11 12 15 10 17 27 34 25 17 10 8 7 8 8 10 10 9 8 8 8
5 4 4 5 8 10 9 8 4 5 11 16 23 23 7 4 9 14 14 13 9 5 7 9 1 -0 7 11 8 14 13 4 24 48 19 6 7 9 8 7 6 6 5
4 6 8 7 9 17 11 5 10 16 28 14 5 12 20 15 3 11 5 9 22 24 24 7 12 8 12 11 7 8 15 17 5 9 20 36 28 19 19 16 15 15 16
8 13 17 12 3 7 17 18 26 9 4 14 22 1 6 -3 6 3 8 16 18 33 31 25 14 12 13 14 19 12 12 14 15 14 13 11 13 16 18 16 14 15 20
8 5 12 18 15 12 26 7 5 12 18 1 2 2 3 2 7 10 10 12 14 30 25 20 14 13 10 13 12 13 12 9 10 16 15 8 7 7 6 7 8 7 5
13 11 11 14 26 7 4 7 16 8 -0 3 -1 4 0 5 6 6 7 8 11 17 18 14 21 16 11 8 6 7 9 9 9 6 8 7 16 12 11 11 7 8 8
Height
5886 5887 5887 5887 5887 5888 5889 5890 5890 5890 5889 5889 5889 5889 5889 5889 5890 5890 5889 5889 5888 5888 5888 5888 5888 5887 5887 5887 5886 5886 5885 5884 5884 5883 5883 5884 5883 5883 5883 5884 5884 5884 5884
5885 5886 5887 5887 5888 5888 5889 5889 5889 5889 5888 5888 5888 5887 5888 5888 5888 5888 5888 5887 5887 5887 5887 5886 5886 5886 5886 5885 5885 5885 5884 5884 5883 5883 5882 5882 5882 5883 5882 5882 5883 5883 5883
5884 5885 5886 5887 5887 5888 5888 5888 5888 5887 5887 5887 5887 5886 5886 5885 5885 5885 5885 5885 5885 5885 5885 5885 5884 5884 5883 5883 5883 5883 5883 5883 5882 5882 5882 5881 5881 5880 5881 5881 5881 5881 5881
5883 5884 5885 5886 5886 5887 5887 5887 5887 5886 5886 5885 5885 5885 5885 5884 5883 5883 5883 5882 5882 5882 5882 5882 5882 5881 5881 5881 5880 5880 5880 5880 5880 5880 5880 5880 5879 5879 5879 5879 5879 5879 5879
5882 5883 5884 5884 5885 5885 5885 5885 5885 5885 5884 5884 5883 5883 5882 5882 5882 5881 5881 5880 5879 5879 5878 5878 5878 5878 5878 5878 5877 5877 5877 5877 5877 5877 5877 5878 5878 5877 5876 5876 5876 5876 5876
5880 5882 5883 5883 5884 5884 5884 5884 5884 5883 5883 5882 5881 5880 5880 5880 5879 5878 5878 5878 5877 5876 5876 5875 5874 5874 5874 5874 5874 5873 5874 5873 5873 5873 5873 5874 5873 5873 5873 5873 5873 5873 5873
5879 5880 5881 5881 5882 5882 5882 5881 5881 5880 5880 5879 5879 5878 5877 5876 5875 5875 5875 5874 5873 5872 5872 5871 5871 5870 5870 5870 5869 5869 5869 5869 5869 5869 5870 5870 5869 5869 5869 5869 5869 5869 5869
5877 5878 5879 5879 5879 5879 5878 5878 5878 5877 5876 5875 5874 5873 5873 5872 5871 5870 5870 5869 5869 5868 5867 5867 5867 5866 5866 5865 5865 5864 5864 5864 5864 5864 5864 5865 5864 5864 5864 5864 5864 5865 5865
5875 5875 5876 5876 5876 5875 5875 5874 5874 5872 5872 5871 5870 5868 5867 5866 5865 5864 5863 5862 5862 5862 5862 5861 5861 5861 5860 5860 5859 5859 5859 5859 5858 5858 5858 5858 5857 5858 5858 5859 5859 5859 5859
5871 5871 5872 5872 5872 5871 5870 5869 5868 5867 5866 5865 5864 5863 5861 5860 5859 5858 5856 5856 5855 5854 5854 5854 5854 5853 5853 5853 5852 5852 5853 5852 5852 5852 5852 5852 5851 5852 5851 5851 5852 5852 5852
5867 5867 5867 5867 5866 5866 5865 5863 5862 5860 5859 5858 5857 5856 5854 5853 5852 5851 5850 5849 5848 5848 5847 5847 5847 5846 5846 5846 5845 5844 5845 5845 5845 5845 5845 5845 5844 5845 5845 5845 5845 5845 5845
5863 5863 5862 5861 5860 5859 5858 5856 5855 5853 5852 5851 5850 5849 5847 5847 5846 5845 5844 5843 5842 5841 5841 5840 5839 5838 5838 5839 5838 5837 5838 5837 5837 5838 5838 5837 5837 5837 5838 5838 5838 5838 5838
5859 5858 5857 5856 5854 5852 5851 5850 5848 5847 5846 5845 5844 5843 5842 5842 5841 5840 5839 5838 5837 5836 5835 5834 5833 5832 5831 5831 5831 5830 5829 5829 5830 5830 5830 5830 5830 5829 5829 5829 5830 5830 5831
5854 5853 5851 5850 5848 5847 5845 5844 5843 5842 5841 5840 5839 5839 5838 5837 5836 5835 5834 5832 5831 5829 5829 5828 5827 5825 5824 5823 5823 5823 5822 5822 5821 5820 5820 5821 5821 5821 5821 5821 5821 5821 5822
5848 5847 5846 5844 5843 5842 5841 5840 5839 5837 5837 5835 5834 5833 5832 5831 5830 5828 5827 5825 5824 5823 5821 5819 5819 5818 5817 5816 5815 5815 5814 5814 5814 5813 5812 5811 5811 5811 5810 5812 5812 5812 5813
5842 5841 5840 5839 5838 5838 5837 5835 5834 5832 5831 5830 5828 5827 5825 5824 5822 5821 5819 5817 5816 5813 5812 5811 5809 5807 5807 5806 5805 5804 5804 5804 5804 5803 5803 5802 5802 5802 5802 5801 5803 5802 5802
5835 5835 5834 5834 5833 5832 5831 5830 5828 5826 5824 5823 5820 5818 5816 5815 5813 5812 5810 5807 5805 5803 5801 5800 5798 5798 5795 5794 5794 5793 5792 5792 5792 5792 5791 5792 5791 5791 5791 5791 5790 5792 5793
5830 5829 5828 5828 5827 5825 5824 5823 5821 5819 5817 5815 5812 5810 5807 5804 5802 5800 5798 5795 5793 5791 5788 5786 5784 5783 5782 5781 5780 5779 5779 5779 5779 5778 5778 5778 5779 5779 5779 5779 5780 5779 5780
5825 5824 5823 5822 5821 5819 5818 5815 5813 5810 5808 5805 5802 5800 5798 5795 5792 5789 5785 5782 5779 5777 5774 5772 5770 5768 5767 5766 5766 5766 5764 5763 5764 5764 5764 5765 5765 5765 5766 5767 5768 5768 5767
5820 5819 5818 5817 5814 5812 5809 5807 5804 5801 5799 5796 5793 5790 5787 5783 5779 5775 5771 5768 5765 5762 5758 5756 5754 5752 5751 5749 5748 5749 5750 5750 5749 5749 5749 5749 5750 5750 5751 5751 5752 5754 5755
5814 5813 5811 5808 5806 5803 5800 5798 5795 5792 5790 5786 5783 5780 5775 5771 5767 5763 5760 5756 5753 5749 5746 5743 5741 5740 5737 5734 5734 5733 5734 5733 5733 5734 5733 5733 5735 5737 5738 5739 5737 5737 5739
5806 5804 5802 5800 5797 5795 5792 5789 5786 5783 5780 5776 5772 5769 5766 5762 5759 5755 5750 5746 5742 5737 5733 5731 5730 5729 5726 5723 5723 5722 5722 5722 5719 5718 5718 5719 5721 5722 5723 5722 5722 5723 5722
5797 5795 5793 5791 5789 5786 5783 5780 5777 5774 5771 5768 5765 5762 5758 5754 5750 5746 5740 5735 5728 5723 5719 5718 5716 5716 5715 5711 5710 5710 5709 5709 5709 5707 5705 5704 5706 5708 5707 5707 5706 5707 5708
5789 5787 5785 5782 5779 5777 5774 5772 5769 5766 5763 5760 5757 5754 5750 5746 5742 5737 5731 5725 5718 5711 5706 5704 5704 5703 5703 5700 5698 5697 5696 5696 5697 5698 5695 5693 5693 5693 5693 5693 5692 5693 5693
5779 5777 5775 5773 5770 5768 5766 5765 5762 5759 5756 5754 5751 5748 5744 5739 5735 5730 5724 5717 5709 5702 5699 5696 5694 5693 5692 5691 5688 5686 5684 5684 5684 5685 5685 5685 5682 5680 5680 5679 5678 5680 5678
5771 5769 5767 5765 5763 5762 5760 5758 5755 5753 5750 5747 5744 5740 5737 5732 5727 5722 5717 5711 5703 5697 5693 5690 5687 5685 5683 5681 5679 5676 5674 5673 5672 5671 5671 5670 5671 5668 5666 5664 5665 5664 5664